Year,Month,Day,Hour,Minute,Value (Times are PST for temperature in C)
2014,06,02,00,00,14.70
2014,06,02,00,01,14.60
2014,06,02,00,02,14.60
2014,06,02,00,03,14.60
2014,06,02,00,04,14.50
2014,06,02,00,05,14.50
2014,06,02,00,06,14.40
2014,06,02,00,07,14.40
2014,06,02,00,08,14.30
2014,06,02,00,09,14.30
2014,06,02,00,10,14.30
2014,06,02,00,11,14.30
2014,06,02,00,12,14.30
2014,06,02,00,13,14.30
2014,06,02,00,14,14.30
2014,06,02,00,15,14.20
2014,06,02,00,16,14.20
2014,06,02,00,17,14.20
2014,06,02,00,18,14.10
2014,06,02,00,19,14.10
2014,06,02,00,20,14.00
2014,06,02,00,21,14.00
2014,06,02,00,22,13.90
2014,06,02,00,23,13.80
2014,06,02,00,24,13.80
2014,06,02,00,25,13.80
2014,06,02,00,26,13.80
2014,06,02,00,27,13.80
2014,06,02,00,28,13.80
2014,06,02,00,29,13.80
2014,06,02,00,30,13.80
2014,06,02,00,31,13.70
2014,06,02,00,32,13.80
2014,06,02,00,33,13.80
2014,06,02,00,34,13.80
2014,06,02,00,35,13.80
2014,06,02,00,36,13.80
2014,06,02,00,37,13.80
2014,06,02,00,38,13.80
2014,06,02,00,39,13.80
2014,06,02,00,40,13.80
2014,06,02,00,41,13.80
2014,06,02,00,42,13.90
2014,06,02,00,43,13.90
2014,06,02,00,44,13.90
2014,06,02,00,45,13.90
2014,06,02,00,46,13.90
2014,06,02,00,47,13.90
2014,06,02,00,48,13.90
2014,06,02,00,49,13.90
2014,06,02,00,50,13.90
2014,06,02,00,51,13.90
2014,06,02,00,52,13.90
2014,06,02,00,53,13.90
2014,06,02,00,54,13.90
2014,06,02,00,55,13.90
2014,06,02,00,56,13.90
2014,06,02,00,57,13.80
2014,06,02,00,58,13.80
2014,06,02,00,59,13.80
2014,06,02,01,00,13.80
2014,06,02,01,01,13.80
2014,06,02,01,02,13.80
2014,06,02,01,03,13.80
2014,06,02,01,04,13.80
2014,06,02,01,05,13.80
2014,06,02,01,06,13.80
2014,06,02,01,07,13.80
2014,06,02,01,08,13.80
2014,06,02,01,09,13.80
2014,06,02,01,10,13.70
2014,06,02,01,11,13.70
2014,06,02,01,12,13.70
2014,06,02,01,13,13.70
2014,06,02,01,14,13.60
2014,06,02,01,15,13.60
2014,06,02,01,16,13.50
2014,06,02,01,17,13.50
2014,06,02,01,18,13.40
2014,06,02,01,19,13.40
2014,06,02,01,20,13.40
2014,06,02,01,21,13.40
2014,06,02,01,22,13.30
2014,06,02,01,23,13.30
2014,06,02,01,24,13.30
2014,06,02,01,25,13.30
2014,06,02,01,26,13.30
2014,06,02,01,27,13.30
2014,06,02,01,28,13.30
2014,06,02,01,29,13.30
2014,06,02,01,30,13.30
2014,06,02,01,31,13.20
2014,06,02,01,32,13.20
2014,06,02,01,33,13.20
2014,06,02,01,34,13.20
2014,06,02,01,35,13.10
2014,06,02,01,36,13.10
2014,06,02,01,37,13.10
2014,06,02,01,38,13.10
2014,06,02,01,39,13.10
2014,06,02,01,40,13.10
2014,06,02,01,41,13.10
2014,06,02,01,42,13.10
2014,06,02,01,43,13.10
2014,06,02,01,44,13.10
2014,06,02,01,45,13.10
2014,06,02,01,46,13.00
2014,06,02,01,47,13.00
2014,06,02,01,48,13.00
2014,06,02,01,49,13.00
2014,06,02,01,50,12.90
2014,06,02,01,51,12.90
2014,06,02,01,52,12.90
2014,06,02,01,53,12.90
2014,06,02,01,54,12.90
2014,06,02,01,55,12.90
2014,06,02,01,56,12.80
2014,06,02,01,57,12.80
2014,06,02,01,58,12.80
2014,06,02,01,59,12.80
2014,06,02,02,00,12.80
2014,06,02,02,01,12.80
2014,06,02,02,02,12.70
2014,06,02,02,03,12.70
2014,06,02,02,04,12.70
2014,06,02,02,05,12.70
2014,06,02,02,06,12.60
2014,06,02,02,07,12.60
2014,06,02,02,08,12.60
2014,06,02,02,09,12.60
2014,06,02,02,10,12.60
2014,06,02,02,11,12.60
2014,06,02,02,12,12.50
2014,06,02,02,13,12.50
2014,06,02,02,14,12.50
2014,06,02,02,15,12.50
2014,06,02,02,16,12.40
2014,06,02,02,17,12.40
2014,06,02,02,18,12.40
2014,06,02,02,19,12.40
2014,06,02,02,20,12.40
2014,06,02,02,21,12.40
2014,06,02,02,22,12.30
2014,06,02,02,23,12.30
2014,06,02,02,24,12.30
2014,06,02,02,25,12.30
2014,06,02,02,26,12.30
2014,06,02,02,27,12.30
2014,06,02,02,28,12.30
2014,06,02,02,29,12.30
2014,06,02,02,30,12.20
2014,06,02,02,31,12.20
2014,06,02,02,32,12.20
2014,06,02,02,33,12.20
2014,06,02,02,34,12.20
2014,06,02,02,35,12.20
2014,06,02,02,36,12.20
2014,06,02,02,37,12.10
2014,06,02,02,38,12.10
2014,06,02,02,39,12.10
2014,06,02,02,40,12.10
2014,06,02,02,41,12.10
2014,06,02,02,42,12.10
2014,06,02,02,43,12.00
2014,06,02,02,44,12.00
2014,06,02,02,45,12.00
2014,06,02,02,46,11.90
2014,06,02,02,47,11.90
2014,06,02,02,48,11.90
2014,06,02,02,49,11.90
2014,06,02,02,50,11.90
2014,06,02,02,51,11.90
2014,06,02,02,52,11.90
2014,06,02,02,53,11.80
2014,06,02,02,54,11.80
2014,06,02,02,55,11.80
2014,06,02,02,56,11.80
2014,06,02,02,57,11.80
2014,06,02,02,58,11.80
2014,06,02,02,59,11.80
2014,06,02,03,00,11.80
2014,06,02,03,01,11.80
2014,06,02,03,02,11.80
2014,06,02,03,03,11.80
2014,06,02,03,04,11.80
2014,06,02,03,05,11.80
2014,06,02,03,06,11.80
2014,06,02,03,07,11.70
2014,06,02,03,08,11.70
2014,06,02,03,09,11.70
2014,06,02,03,10,11.70
2014,06,02,03,11,11.70
2014,06,02,03,12,11.70
2014,06,02,03,13,11.70
2014,06,02,03,14,11.70
2014,06,02,03,15,11.70
2014,06,02,03,16,11.70
2014,06,02,03,17,11.70
2014,06,02,03,18,11.70
2014,06,02,03,19,11.70
2014,06,02,03,20,11.70
2014,06,02,03,21,11.70
2014,06,02,03,22,11.70
2014,06,02,03,23,11.70
2014,06,02,03,24,11.70
2014,06,02,03,25,11.70
2014,06,02,03,26,11.70
2014,06,02,03,27,11.70
2014,06,02,03,28,11.70
2014,06,02,03,29,11.70
2014,06,02,03,30,11.70
2014,06,02,03,31,11.70
2014,06,02,03,32,11.70
2014,06,02,03,33,11.70
2014,06,02,03,34,11.70
2014,06,02,03,35,11.70
2014,06,02,03,36,11.70
2014,06,02,03,37,11.70
2014,06,02,03,38,11.70
2014,06,02,03,39,11.70
2014,06,02,03,40,11.70
2014,06,02,03,41,11.70
2014,06,02,03,42,11.60
2014,06,02,03,43,11.60
2014,06,02,03,44,11.60
2014,06,02,03,45,11.60
2014,06,02,03,46,11.50
2014,06,02,03,47,11.50
2014,06,02,03,48,11.50
2014,06,02,03,49,11.40
2014,06,02,03,50,11.40
2014,06,02,03,51,11.40
2014,06,02,03,52,11.40
2014,06,02,03,53,11.40
2014,06,02,03,54,11.30
2014,06,02,03,55,11.30
2014,06,02,03,56,11.30
2014,06,02,03,57,11.30
2014,06,02,03,58,11.30
2014,06,02,03,59,11.30
2014,06,02,04,00,11.30
2014,06,02,04,01,11.30
2014,06,02,04,02,11.30
2014,06,02,04,03,11.20
2014,06,02,04,04,11.20
2014,06,02,04,05,11.20
2014,06,02,04,06,11.20
2014,06,02,04,07,11.20
2014,06,02,04,08,11.20
2014,06,02,04,09,11.20
2014,06,02,04,10,11.20
2014,06,02,04,11,11.20
2014,06,02,04,12,11.20
2014,06,02,04,13,11.20
2014,06,02,04,14,11.20
2014,06,02,04,15,11.20
2014,06,02,04,16,11.20
2014,06,02,04,17,11.20
2014,06,02,04,18,11.10
2014,06,02,04,19,11.20
2014,06,02,04,20,11.20
2014,06,02,04,21,11.20
2014,06,02,04,22,11.20
2014,06,02,04,23,11.20
2014,06,02,04,24,11.20
2014,06,02,04,25,11.20
2014,06,02,04,26,11.30
2014,06,02,04,27,11.30
2014,06,02,04,28,11.30
2014,06,02,04,29,11.30
2014,06,02,04,30,11.30
2014,06,02,04,31,11.30
2014,06,02,04,32,11.30
2014,06,02,04,33,11.30
2014,06,02,04,34,11.30
2014,06,02,04,35,11.30
2014,06,02,04,36,11.30
2014,06,02,04,37,11.30
2014,06,02,04,38,11.30
2014,06,02,04,39,11.30
2014,06,02,04,40,11.20
2014,06,02,04,41,11.20
2014,06,02,04,42,11.20
2014,06,02,04,43,11.20
2014,06,02,04,44,11.20
2014,06,02,04,45,11.20
2014,06,02,04,46,11.20
2014,06,02,04,47,11.20
2014,06,02,04,48,11.20
2014,06,02,04,49,11.20
2014,06,02,04,50,11.20
2014,06,02,04,51,11.20
2014,06,02,04,52,11.20
2014,06,02,04,53,11.20
2014,06,02,04,54,11.20
2014,06,02,04,55,11.20
2014,06,02,04,56,11.20
2014,06,02,04,57,11.20
2014,06,02,04,58,11.20
2014,06,02,04,59,11.20
2014,06,02,05,00,11.20
2014,06,02,05,01,11.20
2014,06,02,05,02,11.20
2014,06,02,05,03,11.10
2014,06,02,05,04,11.10
2014,06,02,05,05,11.10
2014,06,02,05,06,11.10
2014,06,02,05,07,11.10
2014,06,02,05,08,11.10
2014,06,02,05,09,11.10
2014,06,02,05,10,11.10
2014,06,02,05,11,11.10
2014,06,02,05,12,11.10
2014,06,02,05,13,11.10
2014,06,02,05,14,11.10
2014,06,02,05,15,11.10
2014,06,02,05,16,11.10
2014,06,02,05,17,11.10
2014,06,02,05,18,11.00
2014,06,02,05,19,11.10
2014,06,02,05,20,11.10
2014,06,02,05,21,11.10
2014,06,02,05,22,11.10
2014,06,02,05,23,11.10
2014,06,02,05,24,11.10
2014,06,02,05,25,11.00
2014,06,02,05,26,11.00
2014,06,02,05,27,11.00
2014,06,02,05,28,11.00
2014,06,02,05,29,11.00
2014,06,02,05,30,11.00
2014,06,02,05,31,11.00
2014,06,02,05,32,11.00
2014,06,02,05,33,11.00
2014,06,02,05,34,11.00
2014,06,02,05,35,11.00
2014,06,02,05,36,11.00
2014,06,02,05,37,11.10
2014,06,02,05,38,11.10
2014,06,02,05,39,11.10
2014,06,02,05,40,11.10
2014,06,02,05,41,11.10
2014,06,02,05,42,11.00
2014,06,02,05,43,11.00
2014,06,02,05,44,11.00
2014,06,02,05,45,11.00
2014,06,02,05,46,11.00
2014,06,02,05,47,11.10
2014,06,02,05,48,11.10
2014,06,02,05,49,11.10
2014,06,02,05,50,11.10
2014,06,02,05,51,11.10
2014,06,02,05,52,11.10
2014,06,02,05,53,11.10
2014,06,02,05,54,11.10
2014,06,02,05,55,11.10
2014,06,02,05,56,11.10
2014,06,02,05,57,11.10
2014,06,02,05,58,11.10
2014,06,02,05,59,11.10
2014,06,02,06,00,11.10
2014,06,02,06,01,11.10
2014,06,02,06,02,11.10
2014,06,02,06,03,11.10
2014,06,02,06,04,11.10
2014,06,02,06,05,11.10
2014,06,02,06,06,11.10
2014,06,02,06,07,11.10
2014,06,02,06,08,11.10
2014,06,02,06,09,11.10
2014,06,02,06,10,11.10
2014,06,02,06,11,11.10
2014,06,02,06,12,11.10
2014,06,02,06,13,11.10
2014,06,02,06,14,11.10
2014,06,02,06,15,11.10
2014,06,02,06,16,11.10
2014,06,02,06,17,11.10
2014,06,02,06,18,11.10
2014,06,02,06,19,11.10
2014,06,02,06,20,11.10
2014,06,02,06,21,11.10
2014,06,02,06,22,11.10
2014,06,02,06,23,11.10
2014,06,02,06,24,11.10
2014,06,02,06,25,11.00
2014,06,02,06,26,11.00
2014,06,02,06,27,11.00
2014,06,02,06,28,11.00
2014,06,02,06,29,11.00
2014,06,02,06,30,11.00
2014,06,02,06,31,11.00
2014,06,02,06,32,10.90
2014,06,02,06,33,10.90
2014,06,02,06,34,10.90
2014,06,02,06,35,10.90
2014,06,02,06,36,11.00
2014,06,02,06,37,10.90
2014,06,02,06,38,10.90
2014,06,02,06,39,10.90
2014,06,02,06,40,10.90
2014,06,02,06,41,10.90
2014,06,02,06,42,11.00
2014,06,02,06,43,11.00
2014,06,02,06,44,11.00
2014,06,02,06,45,11.00
2014,06,02,06,46,11.10
2014,06,02,06,47,11.10
2014,06,02,06,48,11.10
2014,06,02,06,49,11.10
2014,06,02,06,50,11.10
2014,06,02,06,51,11.10
2014,06,02,06,52,11.10
2014,06,02,06,53,11.20
2014,06,02,06,54,11.20
2014,06,02,06,55,11.20
2014,06,02,06,56,11.20
2014,06,02,06,57,11.20
2014,06,02,06,58,11.20
2014,06,02,06,59,11.30
2014,06,02,07,00,11.30
2014,06,02,07,01,11.30
2014,06,02,07,02,11.40
2014,06,02,07,03,11.40
2014,06,02,07,04,11.40
2014,06,02,07,05,11.40
2014,06,02,07,06,11.50
2014,06,02,07,07,11.50
2014,06,02,07,08,11.60
2014,06,02,07,09,11.70
2014,06,02,07,10,11.70
2014,06,02,07,11,11.80
2014,06,02,07,12,11.90
2014,06,02,07,13,12.00
2014,06,02,07,14,12.10
2014,06,02,07,15,12.20
2014,06,02,07,16,12.30
2014,06,02,07,17,12.40
2014,06,02,07,18,12.50
2014,06,02,07,19,12.60
2014,06,02,07,20,12.60
2014,06,02,07,21,12.70
2014,06,02,07,22,12.80
2014,06,02,07,23,12.80
2014,06,02,07,24,12.90
2014,06,02,07,25,13.00
2014,06,02,07,26,13.10
2014,06,02,07,27,13.20
2014,06,02,07,28,13.20
2014,06,02,07,29,13.30
2014,06,02,07,30,13.40
2014,06,02,07,31,13.40
2014,06,02,07,32,13.50
2014,06,02,07,33,13.50
2014,06,02,07,34,13.50
2014,06,02,07,35,13.60
2014,06,02,07,36,13.60
2014,06,02,07,37,13.60
2014,06,02,07,38,13.70
2014,06,02,07,39,13.70
2014,06,02,07,40,13.70
2014,06,02,07,41,13.70
2014,06,02,07,42,13.70
2014,06,02,07,43,13.70
2014,06,02,07,44,13.80
2014,06,02,07,45,13.80
2014,06,02,07,46,13.80
2014,06,02,07,47,13.80
2014,06,02,07,48,13.80
2014,06,02,07,49,13.80
2014,06,02,07,50,13.90
2014,06,02,07,51,13.90
2014,06,02,07,52,13.90
2014,06,02,07,53,13.90
2014,06,02,07,54,13.80
2014,06,02,07,55,13.90
2014,06,02,07,56,13.90
2014,06,02,07,57,13.90
2014,06,02,07,58,13.90
2014,06,02,07,59,13.90
2014,06,02,08,00,13.90
2014,06,02,08,01,13.90
2014,06,02,08,02,13.90
2014,06,02,08,03,14.00
2014,06,02,08,04,14.00
2014,06,02,08,05,14.00
2014,06,02,08,06,14.10
2014,06,02,08,07,14.10
2014,06,02,08,08,14.20
2014,06,02,08,09,14.20
2014,06,02,08,10,14.30
2014,06,02,08,11,14.30
2014,06,02,08,12,14.30
2014,06,02,08,13,14.30
2014,06,02,08,14,14.30
2014,06,02,08,15,14.30
2014,06,02,08,16,14.40
2014,06,02,08,17,14.40
2014,06,02,08,18,14.40
2014,06,02,08,19,14.40
2014,06,02,08,20,14.40
2014,06,02,08,21,14.50
2014,06,02,08,22,14.50
2014,06,02,08,23,14.50
2014,06,02,08,24,14.40
2014,06,02,08,25,14.40
2014,06,02,08,26,14.30
2014,06,02,08,27,14.30
2014,06,02,08,28,14.30
2014,06,02,08,29,14.30
2014,06,02,08,30,14.30
2014,06,02,08,31,14.30
2014,06,02,08,32,14.40
2014,06,02,08,33,14.40
2014,06,02,08,34,14.40
2014,06,02,08,35,14.50
2014,06,02,08,36,14.60
2014,06,02,08,37,14.60
2014,06,02,08,38,14.60
2014,06,02,08,39,14.60
2014,06,02,08,40,14.60
2014,06,02,08,41,14.60
2014,06,02,08,42,14.60
2014,06,02,08,43,14.60
2014,06,02,08,44,14.60
2014,06,02,08,45,14.70
2014,06,02,08,46,14.70
2014,06,02,08,47,14.70
2014,06,02,08,48,14.80
2014,06,02,08,49,14.80
2014,06,02,08,50,14.90
2014,06,02,08,51,14.90
2014,06,02,08,52,15.00
2014,06,02,08,53,15.00
2014,06,02,08,55,15.00
2014,06,02,08,56,15.00
2014,06,02,08,57,15.00
2014,06,02,08,58,15.00
2014,06,02,08,59,15.00
2014,06,02,09,00,15.00
2014,06,02,09,01,15.10
2014,06,02,09,02,15.10
2014,06,02,09,03,15.20
2014,06,02,09,04,15.20
2014,06,02,09,05,15.20
2014,06,02,09,06,15.20
2014,06,02,09,07,15.20
2014,06,02,09,08,15.20
2014,06,02,09,09,15.30
2014,06,02,09,10,15.30
2014,06,02,09,11,15.30
2014,06,02,09,12,15.30
2014,06,02,09,13,15.30
2014,06,02,09,14,15.30
2014,06,02,09,15,15.30
2014,06,02,09,16,15.40
2014,06,02,09,17,15.40
2014,06,02,09,18,15.50
2014,06,02,09,19,15.60
2014,06,02,09,20,15.70
2014,06,02,09,21,15.90
2014,06,02,09,22,16.00
2014,06,02,09,23,16.10
2014,06,02,09,24,16.20
2014,06,02,09,25,16.30
2014,06,02,09,26,16.40
2014,06,02,09,27,16.50
2014,06,02,09,28,16.60
2014,06,02,09,29,16.70
2014,06,02,09,30,16.80
2014,06,02,09,31,16.80
2014,06,02,09,32,16.90
2014,06,02,09,33,16.90
2014,06,02,09,34,17.00
2014,06,02,09,35,17.00
2014,06,02,09,36,16.90
2014,06,02,09,37,16.90
2014,06,02,09,38,16.80
2014,06,02,09,39,16.80
2014,06,02,09,40,16.70
2014,06,02,09,41,16.70
2014,06,02,09,42,16.60
2014,06,02,09,43,16.40
2014,06,02,09,44,16.30
2014,06,02,09,45,16.20
2014,06,02,09,46,16.10
2014,06,02,09,47,16.00
2014,06,02,09,48,16.00
2014,06,02,09,49,16.10
2014,06,02,09,50,16.10
2014,06,02,09,51,16.20
2014,06,02,09,52,16.20
2014,06,02,09,53,16.30
2014,06,02,09,54,16.30
2014,06,02,09,55,16.40
2014,06,02,09,56,16.50
2014,06,02,09,57,16.60
2014,06,02,09,58,16.70
2014,06,02,09,59,16.70
2014,06,02,10,00,16.70
2014,06,02,10,01,16.80
2014,06,02,10,02,16.80
2014,06,02,10,03,16.80
2014,06,02,10,04,16.80
2014,06,02,10,05,16.80
2014,06,02,10,06,16.80
2014,06,02,10,07,16.80
2014,06,02,10,08,16.80
2014,06,02,10,09,16.80
2014,06,02,10,10,16.80
2014,06,02,10,11,16.90
2014,06,02,10,12,16.90
2014,06,02,10,13,17.00
2014,06,02,10,14,17.00
2014,06,02,10,15,17.10
2014,06,02,10,16,17.20
2014,06,02,10,17,17.20
2014,06,02,10,18,17.20
2014,06,02,10,19,17.30
2014,06,02,10,20,17.30
2014,06,02,10,21,17.40
2014,06,02,10,22,17.50
2014,06,02,10,23,17.60
2014,06,02,10,24,17.70
2014,06,02,10,25,17.80
2014,06,02,10,26,17.90
2014,06,02,10,27,17.90
2014,06,02,10,28,17.90
2014,06,02,10,29,17.80
2014,06,02,10,30,17.80
2014,06,02,10,31,17.70
2014,06,02,10,32,17.70
2014,06,02,10,33,17.70
2014,06,02,10,34,17.80
2014,06,02,10,35,17.90
2014,06,02,10,36,17.90
2014,06,02,10,37,18.00
2014,06,02,10,38,18.00
2014,06,02,10,39,18.00
2014,06,02,10,40,17.90
2014,06,02,10,41,17.80
2014,06,02,10,42,17.70
2014,06,02,10,43,17.60
2014,06,02,10,44,17.50
2014,06,02,10,45,17.40
2014,06,02,10,46,17.50
2014,06,02,10,47,17.50
2014,06,02,10,48,17.60
2014,06,02,10,49,17.70
2014,06,02,10,50,17.80
2014,06,02,10,51,17.80
2014,06,02,10,52,17.90
2014,06,02,10,53,17.80
2014,06,02,10,54,17.80
2014,06,02,10,55,17.90
2014,06,02,10,56,17.90
2014,06,02,10,57,18.00
2014,06,02,10,58,18.10
2014,06,02,10,59,18.10
2014,06,02,11,00,18.20
2014,06,02,11,01,18.30
2014,06,02,11,02,18.40
2014,06,02,11,03,18.40
2014,06,02,11,04,18.50
2014,06,02,11,05,18.50
2014,06,02,11,06,18.60
2014,06,02,11,07,18.60
2014,06,02,11,08,18.60
2014,06,02,11,09,18.50
2014,06,02,11,10,18.50
2014,06,02,11,11,18.40
2014,06,02,11,12,18.30
2014,06,02,11,13,18.40
2014,06,02,11,14,18.40
2014,06,02,11,15,18.40
2014,06,02,11,16,18.40
2014,06,02,11,17,18.30
2014,06,02,11,18,18.30
2014,06,02,11,19,18.30
2014,06,02,11,20,18.30
2014,06,02,11,21,18.40
2014,06,02,11,22,18.40
2014,06,02,11,23,18.50
2014,06,02,11,24,18.50
2014,06,02,11,25,18.50
2014,06,02,11,26,18.60
2014,06,02,11,27,18.60
2014,06,02,11,28,18.60
2014,06,02,11,29,18.60
2014,06,02,11,30,18.70
2014,06,02,11,31,18.80
2014,06,02,11,32,18.80
2014,06,02,11,33,18.80
2014,06,02,11,34,18.80
2014,06,02,11,35,18.80
2014,06,02,11,36,18.80
2014,06,02,11,37,18.80
2014,06,02,11,38,18.80
2014,06,02,11,39,18.70
2014,06,02,11,40,18.70
2014,06,02,11,41,18.70
2014,06,02,11,42,18.60
2014,06,02,11,43,18.60
2014,06,02,11,44,18.60
2014,06,02,11,45,18.60
2014,06,02,11,46,18.70
2014,06,02,11,47,18.80
2014,06,02,11,48,18.80
2014,06,02,11,49,18.80
2014,06,02,11,50,18.80
2014,06,02,11,51,18.80
2014,06,02,11,52,18.80
2014,06,02,11,53,18.80
2014,06,02,11,54,18.70
2014,06,02,11,55,18.60
2014,06,02,11,56,18.60
2014,06,02,11,57,18.50
2014,06,02,11,58,18.50
2014,06,02,11,59,18.50
2014,06,02,12,00,18.50
2014,06,02,12,01,18.40
2014,06,02,12,02,18.30
2014,06,02,12,03,18.20
2014,06,02,12,04,18.20
2014,06,02,12,05,18.10
2014,06,02,12,06,18.10
2014,06,02,12,07,18.10
2014,06,02,12,08,18.20
2014,06,02,12,09,18.30
2014,06,02,12,10,18.40
2014,06,02,12,11,18.50
2014,06,02,12,12,18.60
2014,06,02,12,13,18.70
2014,06,02,12,14,18.80
2014,06,02,12,15,18.90
2014,06,02,12,16,19.00
2014,06,02,12,17,19.00
2014,06,02,12,18,19.00
2014,06,02,12,19,19.00
2014,06,02,12,20,19.00
2014,06,02,12,21,19.10
2014,06,02,12,22,19.10
2014,06,02,12,23,19.10
2014,06,02,12,24,19.10
2014,06,02,12,25,19.20
2014,06,02,12,26,19.20
2014,06,02,12,27,19.30
2014,06,02,12,28,19.40
2014,06,02,12,29,19.30
2014,06,02,12,30,19.30
2014,06,02,12,31,19.20
2014,06,02,12,32,19.10
2014,06,02,12,33,19.10
2014,06,02,12,34,19.10
2014,06,02,12,35,19.10
2014,06,02,12,36,19.10
2014,06,02,12,37,19.20
2014,06,02,12,38,19.20
2014,06,02,12,39,19.20
2014,06,02,12,40,19.10
2014,06,02,12,41,19.00
2014,06,02,12,42,19.00
2014,06,02,12,43,19.10
2014,06,02,12,44,19.10
2014,06,02,12,45,19.10
2014,06,02,12,46,19.10
2014,06,02,12,47,19.20
2014,06,02,12,48,19.20
2014,06,02,12,49,19.20
2014,06,02,12,50,19.20
2014,06,02,12,51,19.20
2014,06,02,12,52,19.10
2014,06,02,12,53,19.00
2014,06,02,12,54,19.00
2014,06,02,12,55,19.00
2014,06,02,12,56,19.10
2014,06,02,12,57,19.20
2014,06,02,12,58,19.30
2014,06,02,12,59,19.30
2014,06,02,13,00,19.40
2014,06,02,13,01,19.40
2014,06,02,13,02,19.40
2014,06,02,13,03,19.40
2014,06,02,13,04,19.40
2014,06,02,13,05,19.40
2014,06,02,13,06,19.50
2014,06,02,13,07,19.50
2014,06,02,13,08,19.50
2014,06,02,13,09,19.50
2014,06,02,13,10,19.50
2014,06,02,13,11,19.60
2014,06,02,13,12,19.50
2014,06,02,13,13,19.40
2014,06,02,13,14,19.40
2014,06,02,13,15,19.50
2014,06,02,13,16,19.50
2014,06,02,13,17,19.50
2014,06,02,13,18,19.50
2014,06,02,13,19,19.60
2014,06,02,13,20,19.50
2014,06,02,13,21,19.50
2014,06,02,13,22,19.60
2014,06,02,13,23,19.70
2014,06,02,13,24,19.70
2014,06,02,13,25,19.70
2014,06,02,13,26,19.70
2014,06,02,13,27,19.70
2014,06,02,13,28,19.70
2014,06,02,13,29,19.80
2014,06,02,13,30,19.90
2014,06,02,13,31,19.90
2014,06,02,13,32,20.00
2014,06,02,13,33,20.00
2014,06,02,13,34,20.10
2014,06,02,13,35,20.20
2014,06,02,13,36,20.30
2014,06,02,13,37,20.30
2014,06,02,13,38,20.30
2014,06,02,13,39,20.20
2014,06,02,13,40,20.20
2014,06,02,13,41,20.20
2014,06,02,13,42,20.20
2014,06,02,13,43,20.20
2014,06,02,13,44,20.20
2014,06,02,13,45,20.20
2014,06,02,13,46,20.20
2014,06,02,13,47,20.10
2014,06,02,13,48,20.10
2014,06,02,13,49,20.10
2014,06,02,13,50,20.20
2014,06,02,13,51,20.20
2014,06,02,13,52,20.30
2014,06,02,13,53,20.40
2014,06,02,13,54,20.50
2014,06,02,13,55,20.60
2014,06,02,13,56,20.70
2014,06,02,13,57,20.70
2014,06,02,13,58,20.60
2014,06,02,13,59,20.50
2014,06,02,14,00,20.50
2014,06,02,14,01,20.40
2014,06,02,14,02,20.50
2014,06,02,14,03,20.40
2014,06,02,14,04,20.30
2014,06,02,14,05,20.10
2014,06,02,14,06,20.00
2014,06,02,14,07,20.00
2014,06,02,14,08,20.00
2014,06,02,14,09,20.10
2014,06,02,14,10,20.00
2014,06,02,14,11,19.90
2014,06,02,14,12,19.90
2014,06,02,14,13,19.90
2014,06,02,14,14,20.00
2014,06,02,14,15,20.10
2014,06,02,14,16,20.10
2014,06,02,14,17,20.10
2014,06,02,14,18,20.10
2014,06,02,14,19,20.20
2014,06,02,14,20,20.30
2014,06,02,14,21,20.40
2014,06,02,14,22,20.60
2014,06,02,14,23,20.70
2014,06,02,14,24,20.60
2014,06,02,14,25,20.60
2014,06,02,14,26,20.60
2014,06,02,14,27,20.70
2014,06,02,14,28,20.70
2014,06,02,14,29,20.70
2014,06,02,14,30,20.70
2014,06,02,14,31,20.70
2014,06,02,14,32,20.60
2014,06,02,14,33,20.60
2014,06,02,14,34,20.60
2014,06,02,14,35,20.60
2014,06,02,14,36,20.60
2014,06,02,14,37,20.70
2014,06,02,14,38,20.70
2014,06,02,14,39,20.70
2014,06,02,14,40,20.70
2014,06,02,14,41,20.80
2014,06,02,14,42,20.80
2014,06,02,14,43,20.80
2014,06,02,14,44,20.70
2014,06,02,14,45,20.70
2014,06,02,14,46,20.70
2014,06,02,14,47,20.60
2014,06,02,14,48,20.70
2014,06,02,14,49,20.80
2014,06,02,14,50,20.90
2014,06,02,14,51,20.90
2014,06,02,14,52,20.90
2014,06,02,14,53,20.90
2014,06,02,14,54,20.90
2014,06,02,14,55,20.90
2014,06,02,14,56,21.00
2014,06,02,14,57,21.00
2014,06,02,14,58,21.00
2014,06,02,14,59,21.10
2014,06,02,15,00,21.20
2014,06,02,15,01,21.30
2014,06,02,15,02,21.40
2014,06,02,15,03,21.50
2014,06,02,15,04,21.60
2014,06,02,15,05,21.80
2014,06,02,15,06,21.90
2014,06,02,15,07,21.90
2014,06,02,15,08,22.00
2014,06,02,15,09,22.00
2014,06,02,15,10,22.00
2014,06,02,15,11,22.10
2014,06,02,15,12,22.00
2014,06,02,15,13,22.10
2014,06,02,15,14,22.10
2014,06,02,15,15,22.00
2014,06,02,15,16,21.90
2014,06,02,15,17,21.70
2014,06,02,15,18,21.60
2014,06,02,15,19,21.60
2014,06,02,15,20,21.50
2014,06,02,15,21,21.40
2014,06,02,15,22,21.30
2014,06,02,15,23,21.30
2014,06,02,15,24,21.30
2014,06,02,15,25,21.30
2014,06,02,15,26,21.30
2014,06,02,15,27,21.40
2014,06,02,15,28,21.50
2014,06,02,15,29,21.50
2014,06,02,15,30,21.50
2014,06,02,15,31,21.40
2014,06,02,15,32,21.50
2014,06,02,15,33,21.50
2014,06,02,15,34,21.50
2014,06,02,15,35,21.60
2014,06,02,15,36,21.60
2014,06,02,15,37,21.70
2014,06,02,15,38,21.80
2014,06,02,15,39,21.90
2014,06,02,15,40,22.00
2014,06,02,15,41,22.00
2014,06,02,15,42,21.90
2014,06,02,15,43,21.90
2014,06,02,15,44,21.80
2014,06,02,15,45,21.80
2014,06,02,15,46,21.90
2014,06,02,15,47,21.90
2014,06,02,15,48,22.00
2014,06,02,15,49,22.10
2014,06,02,15,50,22.20
2014,06,02,15,51,22.30
2014,06,02,15,52,22.40
2014,06,02,15,53,22.60
2014,06,02,15,54,22.70
2014,06,02,15,55,22.80
2014,06,02,15,56,22.80
2014,06,02,15,57,22.80
2014,06,02,15,58,22.80
2014,06,02,15,59,22.90
2014,06,02,16,00,22.90
2014,06,02,16,01,22.80
2014,06,02,16,02,22.80
2014,06,02,16,03,22.70
2014,06,02,16,04,22.70
2014,06,02,16,05,22.60
2014,06,02,16,06,22.50
2014,06,02,16,07,22.40
2014,06,02,16,08,22.30
2014,06,02,16,09,22.20
2014,06,02,16,10,22.10
2014,06,02,16,11,22.10
2014,06,02,16,12,22.00
2014,06,02,16,13,22.10
2014,06,02,16,14,22.10
2014,06,02,16,15,22.20
2014,06,02,16,16,22.20
2014,06,02,16,17,22.10
2014,06,02,16,18,22.00
2014,06,02,16,19,22.00
2014,06,02,16,20,22.00
2014,06,02,16,21,22.10
2014,06,02,16,22,22.10
2014,06,02,16,23,22.10
2014,06,02,16,24,22.10
2014,06,02,16,25,22.10
2014,06,02,16,26,22.10
2014,06,02,16,27,22.20
2014,06,02,16,28,22.20
2014,06,02,16,29,22.20
2014,06,02,16,30,22.30
2014,06,02,16,31,22.40
2014,06,02,16,32,22.40
2014,06,02,16,33,22.40
2014,06,02,16,34,22.40
2014,06,02,16,35,22.40
2014,06,02,16,36,22.40
2014,06,02,16,37,22.30
2014,06,02,16,38,22.30
2014,06,02,16,39,22.40
2014,06,02,16,40,22.60
2014,06,02,16,41,22.70
2014,06,02,16,42,22.70
2014,06,02,16,43,22.80
2014,06,02,16,44,22.80
2014,06,02,16,45,22.80
2014,06,02,16,46,22.80
2014,06,02,16,47,22.80
2014,06,02,16,48,22.80
2014,06,02,16,49,22.80
2014,06,02,16,50,22.90
2014,06,02,16,51,23.10
2014,06,02,16,52,23.20
2014,06,02,16,53,23.20
2014,06,02,16,54,23.20
2014,06,02,16,55,23.20
2014,06,02,16,56,23.30
2014,06,02,16,57,23.40
2014,06,02,16,58,23.40
2014,06,02,16,59,23.40
2014,06,02,17,00,23.40
2014,06,02,17,01,23.40
2014,06,02,17,02,23.30
2014,06,02,17,03,23.20
2014,06,02,17,04,23.20
2014,06,02,17,05,23.10
2014,06,02,17,06,23.10
2014,06,02,17,07,23.00
2014,06,02,17,08,22.90
2014,06,02,17,09,22.80
2014,06,02,17,10,22.80
2014,06,02,17,11,22.80
2014,06,02,17,12,22.80
2014,06,02,17,13,22.90
2014,06,02,17,14,22.90
2014,06,02,17,15,23.00
2014,06,02,17,16,23.10
2014,06,02,17,17,23.10
2014,06,02,17,18,23.00
2014,06,02,17,19,23.00
2014,06,02,17,20,22.90